Franklin, NC

6:09 PM EDT on June 20, 2018 (GMT -0400)
Franklin

Weather History for K1A5 - November, 2017

Change the Weather History Date:

Thursday, November 23, 2017

  Actual Average (KTOC) Record (KTOC)
Temperature  
Mean Temperature 40 °F -  
Max Temperature 59 °F 59 °F 66 °F (2016)
Min Temperature 22 °F 39 °F 29 °F (2015)
Degree Days  
Heating Degree Days 24    
Moisture  
Dew Point 28 °F    
Average Humidity 75    
Maximum Humidity 96    
Minimum Humidity 32    
Precipitation  
Precipitation 0.00 in - - ()
Sea Level Pressure  
Sea Level Pressure 30.06 in    
Wind  
Wind Speed 0 mph (WSW)    
Max Wind Speed 4 mph    
Max Gust Speed -    
Visibility 10 miles    
Events      
Averages and records for this station are not official NWS values.
T = Trace of Precipitation, MM = Missing Value Source: NWS Daily Summary

Daily Weather History Graph

Daily Weather History Graph

Search for Another Location

Airport or City:

Astronomy

Nov. 23, 2017 Rise Set
Actual Time 7:16 AM EST 5:23 PM EST
Civil Twilight 6:49 AM EST 5:50 PM EST
Nautical Twilight 6:18 AM EST 6:21 PM EST
Astronomical Twilight 5:47 AM EST 6:52 PM EST
Moon 11:17 AM EST (11/23) 9:47 PM EST (11/23)
Length of Visible Light 11h 01m
Length of Day
10h 06m
Waxing Crescent, 23% of the Moon is Illuminated
Nov 23
Waxing Crescent
Nov 26
First Quarter
Dec 3
Full
Dec 10
Last Quarter
Dec 18
New

Hourly Weather History & Observations

Time (EST) Temp. Windchill Dew Point Humidity Pressure Visibility Wind Dir Wind Speed Gust Speed Precip Events Conditions
12:05 AM 28.9 °F - 27.0 °F 92% 30.14 in 10.0 mi Calm Calm - N/A   Clear
12:25 AM 28.8 °F - 26.6 °F 92% 30.14 in 10.0 mi Calm Calm - N/A   Clear
12:45 AM 28.4 °F - 26.8 °F 94% 30.14 in 10.0 mi Calm Calm - N/A   Clear
1:05 AM 27.5 °F - 25.7 °F 93% 30.13 in 10.0 mi Calm Calm - N/A   Clear
1:25 AM 28.2 °F - 26.4 °F 93% 30.13 in 10.0 mi Calm Calm - N/A   Clear
1:45 AM 27.5 °F - 25.7 °F 93% 30.13 in 10.0 mi Calm Calm - N/A   Clear
2:05 AM 27.3 °F - 25.7 °F 94% 30.13 in 10.0 mi Calm Calm - N/A   Clear
2:25 AM 26.8 °F - 24.6 °F 92% 30.13 in 10.0 mi Calm Calm - N/A   Clear
2:45 AM 26.2 °F - 24.6 °F 94% 30.12 in 10.0 mi Calm Calm - N/A   Clear
3:05 AM 26.2 °F - 23.9 °F 91% 30.13 in 10.0 mi Calm Calm - N/A   Clear
3:25 AM 25.7 °F - 23.7 °F 92% 30.13 in 10.0 mi Calm Calm - N/A   Clear
3:45 AM 25.3 °F - 23.2 °F 91% 30.12 in 10.0 mi Calm Calm - N/A   Clear
4:05 AM 25.3 °F - 23.7 °F 94% 30.12 in 10.0 mi Calm Calm - N/A   Clear
4:45 AM 24.8 °F - 23.0 °F 93% 30.11 in 10.0 mi Calm Calm - N/A   Clear
5:05 AM 24.3 °F - 22.5 °F 93% 30.11 in 10.0 mi Calm Calm - N/A   Clear
5:25 AM 24.4 °F - 22.5 °F 92% 30.12 in 10.0 mi Calm Calm - N/A   Clear
5:45 AM 24.1 °F - 22.3 °F 93% 30.12 in 10.0 mi Calm Calm - N/A   Clear
6:05 AM 23.9 °F - 22.3 °F 94% 30.12 in 10.0 mi Calm Calm - N/A   Clear
6:45 AM 23.0 °F - 21.2 °F 93% 30.11 in 10.0 mi Calm Calm - N/A   Clear
7:05 AM 23.5 °F - 21.9 °F 94% 30.11 in 10.0 mi Calm Calm - N/A   Clear
7:25 AM 22.8 °F - 21.0 °F 93% 30.11 in 10.0 mi Calm Calm - N/A   Clear
7:45 AM 23.7 °F - 21.6 °F 91% 30.12 in 10.0 mi Calm Calm - N/A   Clear
8:05 AM 24.3 °F - 22.3 °F 92% 30.12 in 10.0 mi Calm Calm - N/A   Clear
8:25 AM 27.3 °F - 25.3 °F 92% 30.13 in 10.0 mi Calm Calm - N/A   Clear
8:45 AM 29.3 °F - 26.4 °F 89% 30.12 in 10.0 mi Calm Calm - N/A   Clear
9:05 AM 31.5 °F - 27.9 °F 87% 30.12 in 10.0 mi Calm Calm - N/A   Clear
9:25 AM 33.6 °F - 28.8 °F 82% 30.12 in 10.0 mi Calm Calm - N/A   Clear
9:45 AM 36.5 °F - 29.1 °F 75% 30.12 in 10.0 mi Calm Calm - N/A   Clear
10:05 AM 38.8 °F - 29.7 °F 70% 30.11 in 10.0 mi Calm Calm - N/A   Clear
10:25 AM 41.7 °F - 29.8 °F 63% 30.10 in 10.0 mi Calm Calm - N/A   Clear
10:45 AM 43.9 °F - 27.1 °F 52% 30.09 in 10.0 mi Calm Calm - N/A   Clear
11:05 AM 45.9 °F - 29.5 °F 53% 30.08 in 10.0 mi Calm Calm - N/A   Clear
11:25 AM 48.4 °F - 29.8 °F 49% 30.07 in 10.0 mi Calm Calm - N/A   Clear
11:45 AM 50.5 °F - 29.5 °F 44% 30.06 in 10.0 mi Calm Calm - N/A   Clear
12:05 PM 52.7 °F - 28.6 °F 40% 30.05 in 10.0 mi Calm Calm - N/A   Clear
12:25 PM 54.3 °F - 28.9 °F 38% 30.04 in 10.0 mi Calm Calm - N/A   Clear
12:45 PM 55.0 °F - 28.8 °F 37% 30.03 in 10.0 mi Calm Calm - N/A   Clear
1:05 PM 56.7 °F - 29.5 °F 35% 30.02 in 10.0 mi Calm Calm - N/A   Clear
1:25 PM 57.6 °F - 28.9 °F 34% 30.01 in 10.0 mi Calm Calm - N/A   Clear
1:45 PM 57.2 °F - 30.0 °F 36% 30.00 in 10.0 mi Calm Calm - N/A   Clear
2:05 PM 57.6 °F - 29.1 °F 34% 29.99 in 10.0 mi Calm Calm - N/A   Clear
2:25 PM 58.5 °F - 28.9 °F 33% 29.99 in 10.0 mi Calm Calm - N/A   Clear
2:45 PM 59.0 °F - 30.4 °F 34% 29.98 in 10.0 mi NW 3.5 mph - N/A   Clear
3:05 PM 59.0 °F - 30.4 °F 34% 29.98 in 10.0 mi Calm Calm - N/A   Clear
3:25 PM 59.5 °F - 29.5 °F 32% 29.97 in 10.0 mi Calm Calm - N/A   Clear
3:45 PM 59.0 °F - 29.3 °F 32% 29.98 in 10.0 mi Calm Calm - N/A   Clear
4:05 PM 59.0 °F - 29.3 °F 32% 29.97 in 10.0 mi Calm Calm - N/A   Clear
4:25 PM 57.7 °F - 30.9 °F 36% 29.97 in 10.0 mi Calm Calm - N/A   Clear
4:45 PM 51.8 °F - 32.9 °F 49% 29.97 in 10.0 mi Calm Calm - N/A   Clear
5:05 PM 48.9 °F - 32.7 °F 54% 29.98 in 10.0 mi SSE 3.5 mph - N/A   Clear
5:25 PM 44.1 °F 42.5 °F 33.8 °F 67% 29.97 in 10.0 mi WSW 3.5 mph - N/A   Clear
5:45 PM 41.9 °F - 33.8 °F 73% 29.99 in 10.0 mi Calm Calm - N/A   Clear
6:05 PM 40.3 °F - 32.5 °F 74% 29.99 in 10.0 mi Calm Calm - N/A   Clear
6:25 PM 40.1 °F - 33.4 °F 77% 30.00 in 10.0 mi Calm Calm - N/A   Clear
6:45 PM 37.2 °F - 32.7 °F 84% 30.00 in 10.0 mi Calm Calm - N/A   Clear
7:05 PM 35.8 °F - 32.0 °F 86% 30.01 in 10.0 mi Calm Calm - N/A   Clear
7:25 PM 34.5 °F - 32.0 °F 90% 30.01 in 10.0 mi Calm Calm - N/A   Clear
8:05 PM 33.3 °F - 31.6 °F 94% 30.02 in 10.0 mi Calm Calm - N/A   Clear
8:25 PM 32.0 °F - 30.4 °F 94% 30.02 in 10.0 mi Calm Calm - N/A   Clear
8:45 PM 32.2 °F - 31.3 °F 96% 30.02 in 10.0 mi Calm Calm - N/A   Clear
9:05 PM 31.3 °F - 30.0 °F 95% 30.02 in 10.0 mi Calm Calm - N/A   Clear
9:25 PM 31.1 °F - 29.7 °F 94% 30.03 in 10.0 mi Calm Calm - N/A   Clear
9:45 PM 31.1 °F - 29.5 °F 94% 30.03 in 10.0 mi Calm Calm - N/A   Clear
10:05 PM 30.6 °F - 29.1 °F 94% 30.03 in 10.0 mi Calm Calm - N/A   Clear
10:25 PM 30.2 °F - 28.2 °F 92% 30.04 in 10.0 mi Calm Calm - N/A   Clear
10:45 PM 30.0 °F - 28.6 °F 94% 30.04 in 10.0 mi Calm Calm - N/A   Clear
11:05 PM 29.7 °F - 28.0 °F 94% 30.04 in 10.0 mi Calm Calm - N/A   Clear
11:25 PM 28.9 °F - 27.5 °F 94% 30.04 in 10.0 mi Calm Calm - N/A   Clear
11:45 PM 28.6 °F - 27.1 °F 94% 30.04 in 10.0 mi Calm Calm - N/A   Clear